TimeEST,TemperatureF,Dew PointF,Humidity,Sea Level PressureIn,VisibilityMPH,Wind Direction,Wind SpeedMPH,Gust SpeedMPH,PrecipitationIn,Events,Conditions,WindDirDegrees,DateUTC
12:53 AM,30.9,21.0,67,29.80,10.0,NNW,10.4,17.3,N/A,,Clear,330,2013-03-05 05:53:00
2:53 AM,30.0,21.0,69,29.82,10.0,NNW,12.7,25.3,N/A,,Clear,330,2013-03-05 07:53:00
3:53 AM,30.0,19.9,66,29.84,10.0,NNW,9.2,19.6,N/A,,Clear,330,2013-03-05 08:53:00
4:53 AM,30.0,19.9,66,29.87,10.0,NNW,10.4,19.6,N/A,,Clear,330,2013-03-05 09:53:00
5:53 AM,30.0,19.9,66,29.89,10.0,NNW,12.7,20.7,N/A,,Clear,330,2013-03-05 10:53:00
6:53 AM,30.9,19.9,64,29.91,10.0,NNW,13.8,21.9,N/A,,Clear,330,2013-03-05 11:53:00
8:53 AM,35.1,21.0,57,29.94,10.0,NNW,13.8,-,N/A,,Mostly Cloudy,340,2013-03-05 13:53:00
9:53 AM,39.0,21.9,50,29.95,10.0,NNW,12.7,21.9,N/A,,Mostly Cloudy,340,2013-03-05 14:53:00
10:53 AM,42.1,24.1,49,29.94,10.0,NNW,10.4,-,N/A,,Clear,330,2013-03-05 15:53:00
11:53 AM,45.0,25.0,46,29.94,10.0,North,10.4,18.4,N/A,,Partly Cloudy,10,2013-03-05 16:53:00
12:53 PM,46.0,26.1,46,29.94,10.0,North,9.2,16.1,N/A,,Scattered Clouds,360,2013-03-05 17:53:00
1:53 PM,46.0,25.0,44,29.95,10.0,Variable,4.6,-,N/A,,Mostly Cloudy,0,2013-03-05 18:53:00
2:53 PM,42.1,28.0,58,29.97,10.0,SSE,8.1,-,N/A,,Overcast,160,2013-03-05 19:53:00
3:53 PM,42.1,28.9,60,29.99,10.0,South,4.6,-,N/A,,Overcast,190,2013-03-05 20:53:00
4:53 PM,42.1,28.0,58,30.00,10.0,Calm,Calm,-,N/A,,Overcast,0,2013-03-05 21:53:00
5:53 PM,39.9,30.9,70,30.01,10.0,Calm,Calm,-,N/A,,Overcast,0,2013-03-05 22:53:00
6:53 PM,41.0,32.0,70,30.03,10.0,Calm,Calm,-,N/A,,Overcast,0,2013-03-05 23:53:00
7:53 PM,35.1,30.0,82,30.04,10.0,Calm,Calm,-,N/A,,Clear,0,2013-03-06 00:53:00
8:53 PM,34.0,28.9,82,30.05,10.0,Calm,Calm,-,N/A,,Mostly Cloudy,0,2013-03-06 01:53:00
9:53 PM,34.0,30.0,85,30.06,10.0,Calm,Calm,-,N/A,,Mostly Cloudy,0,2013-03-06 02:53:00
10:53 PM,30.0,28.0,92,30.04,10.0,Calm,Calm,-,N/A,,Partly Cloudy,0,2013-03-06 03:53:00
11:53 PM,30.0,27.0,88,30.04,10.0,Calm,Calm,-,N/A,,Clear,0,2013-03-06 04:53:00